Simultaneous Nadir Overpasses (SNOs) Predictions

Prediction of SNOs near US between AQUA and NPP Satellite Orbit:

Table of predicted SNOs near US for the next 10.0 days since TLE Epoch: 5/21/2022
Index Date (AQUA) Time (AQUA) AQUA Lat,Lon Date (NPP) Time (NPP) NPP Lat,Lon Distance(km) Time Diff (sec)
1 05/22/2022 06:44:16 34.46, -70.86 05/22/2022 06:39:56 34.75, -72.59 162.06 260
2 05/22/2022 08:20:36 43.57, -92.73 05/22/2022 08:18:48 43.92, -94.93 180.73 108
3 05/22/2022 09:57:42 49.89,-115.04 05/22/2022 09:58:25 50.43,-117.64 194.97 43
4 05/24/2022 20:55:28 49.99,-119.21 05/24/2022 20:48:40 49.64,-121.21 148.98 408
5 05/30/2022 07:29:56 43.15, -80.15 05/30/2022 07:28:01 43.51, -82.35 182.98 115
6 05/30/2022 09:06:55 49.89,-102.31 05/30/2022 09:07:31 50.42,-104.92 195.35 36
